Weather History for Paso Robles, CA

Change the Weather History Date:

Monday, August 4, 2014

  Actual Average Record
Temperature  
Mean Temperature 68 °F 74 °F  
Max Temperature 83 °F 93 °F 113 °F (1998)
Min Temperature 52 °F 54 °F 44 °F (1951)
Degree Days  
Heating Degree Days 0 0  
Month to date heating degree days 0 0  
Since 1 June heating degree days 11 31  
Since 1 July heating degree days 0 4  
Cooling Degree Days 3 9  
Month to date cooling degree days 48 36  
Year to date cooling degree days 777 513  
Since 1 June cooling degree days 624 445  
Growing Degree Days 18 (Base 50)    
Moisture  
Dew Point 51 °F    
Average Humidity 57    
Maximum Humidity 86    
Minimum Humidity 28    
Precipitation  
Precipitation 0.00 in 0.00 in 0.00 in (2014)
Month to date precipitation 0.00 0.01  
Year to date precipitation 4.46 8.80  
Since 1 July precipitation T 0.01  
Sea Level Pressure  
Sea Level Pressure 29.96 in    
Wind  
Wind Speed 9 mph (SSW)    
Max Wind Speed 21 mph    
Max Gust Speed 25 mph    
Visibility 10 miles    
Events      
T = Trace of Precipitation, MM = Missing Value Source: NWS Daily Summary

Daily Weather History Graph

Daily Weather History Graph

Search for Another Location

Airport:

Trip Planner

Search our weather history database for the weather conditions in past years. The results will help you decide how hot, cold, wet, or windy it might be!

Date:

Astronomy

Aug. 04, 2014 Rise Set
Actual Time 6:12 AM PDT 8:03 PM PDT
Civil Twilight 5:45 AM PDT 8:31 PM PDT
Nautical Twilight 5:11 AM PDT 9:05 PM PDT
Astronomical Twilight 4:35 AM PDT 9:40 PM PDT
Moon 2:21 PM PDT (8/4) 12:21 AM PDT (8/4)
Length of Visible Light 14h 46m
Length of Day
13h 50m
First Quarter, 58% of the Moon is Illuminated
Aug 4
First Quarter
Aug 10
Full
Aug 17
Last Quarter
Aug 25
New
Sep 2
First Quarter

Hourly Weather History & Observations

Time (PDT) Temp. Dew Point Humidity Pressure Visibility Wind Dir Wind Speed Gust Speed Precip Events Conditions
12:53 AM 61.0 °F 52.0 °F 72% 29.93 in 10.0 mi NW 4.6 mph - N/A   Clear
3:53 AM 57.9 °F 52.0 °F 81% 29.92 in 10.0 mi Calm Calm - N/A   Clear
5:53 AM 53.1 °F 48.9 °F 86% 29.96 in 10.0 mi East 3.5 mph - N/A   Clear
7:20 AM 55.9 °F 50.0 °F 80% 30.00 in 10.0 mi WSW 3.5 mph - N/A   Partly Cloudy
7:32 AM 57.0 °F 51.1 °F 81% 30.00 in 10.0 mi SW 3.5 mph - N/A   Mostly Cloudy
7:53 AM 57.0 °F 53.1 °F 87% 29.99 in 10.0 mi West 4.6 mph - N/A   Overcast
8:42 AM 60.1 °F 53.1 °F 78% 30.00 in 10.0 mi Calm Calm - N/A   Scattered Clouds
8:53 AM 60.1 °F 53.1 °F 78% 29.99 in 10.0 mi Calm Calm - N/A   Partly Cloudy
9:53 AM 66.9 °F 52.0 °F 59% 29.97 in 10.0 mi South 4.6 mph - N/A   Clear
10:53 AM 72.0 °F 51.1 °F 48% 29.96 in 10.0 mi SSW 9.2 mph - N/A   Clear
11:53 AM 77.0 °F 48.9 °F 37% 29.96 in 10.0 mi SSW 11.5 mph - N/A   Clear
12:53 PM 82.0 °F 46.0 °F 28% 29.96 in 10.0 mi SSW 16.1 mph - N/A   Clear
1:53 PM 82.0 °F 48.0 °F 30% 29.95 in 10.0 mi SSW 18.4 mph - N/A   Clear
2:53 PM 82.0 °F 48.9 °F 31% 29.94 in 10.0 mi SW 15.0 mph 24.2 mph N/A   Clear
3:53 PM 81.0 °F 48.9 °F 33% 29.92 in 10.0 mi SSW 17.3 mph - N/A   Clear
4:53 PM 80.1 °F 48.9 °F 34% 29.92 in 10.0 mi SSW 17.3 mph 24.2 mph N/A   Clear
5:53 PM 77.0 °F 51.1 °F 40% 29.93 in 10.0 mi SSW 17.3 mph - N/A   Clear
6:53 PM 73.9 °F 52.0 °F 46% 29.92 in 10.0 mi SSW 12.7 mph - N/A   Clear
7:53 PM 71.1 °F 52.0 °F 51% 29.93 in 10.0 mi SSW 15.0 mph - N/A   Clear
8:53 PM 66.9 °F 53.1 °F 61% 29.95 in 10.0 mi South 10.4 mph - N/A   Clear
9:53 PM 64.9 °F 53.1 °F 65% 29.96 in 10.0 mi South 9.2 mph - N/A   Clear
10:53 PM 63.0 °F 53.1 °F 70% 29.98 in 10.0 mi South 9.2 mph - N/A   Clear
11:53 PM 61.0 °F 53.1 °F 75% 29.98 in 10.0 mi South 5.8 mph - N/A   Clear